CAPE
0 0 0 0 0 0 0 0 0 0 0 1 0 0 4 1 0 0 0 0 0 0 0 0 2 6 0 11 4 0 0 0 0 0 0 0 0 0 0 0 0 0 0
0 0 0 0 0 0 0 0 0 0 0 0 0 0 0 10 1 0 0 0 0 0 0 0 0 0 1 1 0 1 5 1 1 0 0 0 0 0 0 0 0 0 0
0 0 0 0 0 0 0 0 0 0 0 0 0 0 0 11 6 2 1 1 1 0 1 3 0 0 0 8 14 1 0 2 4 2 0 0 0 0 0 0 0 0 0
0 0 0 0 0 0 0 0 0 0 0 0 0 0 0 6 13 0 0 3 2 0 0 0 6 6 3 7 3 0 0 0 3 1 0 0 0 0 0 0 0 0 0
0 0 0 0 0 0 0 0 0 0 0 0 0 0 0 0 12 2 0 5 0 0 0 0 0 18 5 17 13 0 1 1 0 4 0 0 0 0 0 0 0 0 0
0 0 0 0 0 0 0 0 0 0 0 0 0 0 0 0 32 12 1 0 0 0 0 0 0 3 0 2 15 8 13 5 1 16 7 1 1 0 0 0 0 0 0
0 0 0 0 0 0 0 0 0 0 0 0 0 0 0 0 41 3 0 0 0 0 0 0 0 0 0 0 0 1 1 3 17 0 0 0 0 0 0 0 0 0 0
0 0 0 0 0 0 0 0 0 0 0 0 0 0 0 0 19 19 0 0 0 0 0 0 2 0 17 0 0 0 0 0 2 2 1 0 0 0 0 0 0 0 0
0 0 0 0 0 0 0 0 0 0 0 0 0 0 0 0 3 10 0 0 0 0 0 0 0 6 9 3 0 0 0 0 0 2 3 4 4 1 5 1 0 1 0
0 0 0 0 0 0 0 0 0 0 0 0 0 0 0 0 2 7 3 0 0 0 0 0 0 26 41 33 0 0 0 0 0 0 0 0 0 0 0 0 0 0 1
0 0 0 0 0 0 0 0 0 0 0 0 0 0 0 0 0 3 4 0 0 0 0 0 0 10 16 13 16 7 2 0 0 0 0 0 0 0 0 0 0 0 0
0 0 0 0 0 0 0 0 0 0 0 0 0 0 0 0 0 1 0 0 0 0 0 0 0 0 0 0 2 12 1 1 0 0 0 0 0 0 0 0 0 0 1
0 0 0 0 0 0 0 0 0 0 0 0 0 0 0 0 0 0 0 0 0 0 0 0 0 0 0 0 0 0 0 0 0 0 0 0 0 0 0 0 0 0 0
0 0 0 0 0 0 0 0 0 0 0 0 0 0 0 0 0 0 0 0 0 0 0 0 0 0 0 0 0 0 0 0 0 0 0 0 1 0 0 0 0 0 0
0 0 0 0 0 0 0 0 0 0 0 0 0 0 0 0 0 0 0 0 0 0 0 0 0 0 0 0 0 0 0 0 0 0 0 0 1 0 0 0 0 0 0
0 0 0 0 0 0 0 0 0 0 0 0 0 0 0 0 0 0 0 0 0 0 0 0 0 0 0 0 0 0 0 0 0 0 0 0 2 0 0 0 0 0 0
0 0 0 0 0 0 0 0 0 0 0 0 0 0 0 0 0 0 0 0 0 0 0 0 0 0 0 0 0 0 0 0 0 0 0 0 1 1 1 0 2 1 0
0 0 0 0 0 0 0 0 0 0 0 0 0 0 0 0 0 0 0 0 0 0 0 0 0 0 0 0 0 0 0 0 0 0 0 0 0 0 1 2 1 0 0
0 0 0 0 0 0 0 0 0 0 0 0 0 0 0 0 0 0 0 0 0 0 0 0 0 0 0 0 0 0 0 0 0 0 0 0 0 0 0 0 0 2 2
0 0 0 0 0 0 0 0 0 0 0 0 0 0 0 0 0 0 0 0 0 0 0 0 0 0 0 0 0 0 0 0 0 0 0 0 0 0 0 0 0 0 0
0 0 0 0 0 0 0 0 0 0 0 0 0 0 0 0 0 0 0 0 0 0 0 0 0 0 0 0 0 0 0 0 0 0 0 0 0 0 0 0 0 0 0
0 0 0 0 0 0 0 0 0 0 0 0 0 0 0 0 0 0 0 0 0 0 0 0 0 0 0 0 0 0 0 0 0 0 0 0 0 0 0 0 0 0 0
0 0 0 0 0 0 0 0 0 0 0 0 0 0 0 0 0 0 0 0 0 0 0 0 0 0 0 0 0 0 0 0 0 0 0 0 0 0 0 0 0 0 0
0 0 0 0 0 0 0 0 0 0 0 0 0 0 0 0 0 0 0 0 0 0 0 0 0 0 0 0 0 0 0 0 0 0 0 0 0 0 0 0 0 0 0
0 0 0 0 0 0 0 0 0 0 0 0 0 0 0 0 0 0 0 0 0 0 0 0 0 0 0 0 0 0 0 0 0 0 0 0 0 0 0 0 0 0 0
0 0 0 0 0 0 0 0 0 0 1 0 0 0 0 0 0 0 0 0 0 0 0 0 0 0 0 0 0 0 0 0 0 0 0 0 0 0 0 0 0 0 0
CIN
-0 -0 -0 -0 -0 -0 -0 -0 -0 -0 -0 -5 -0 -0 -1 -0 -1 -0 -0 -0 -0 -0 -0 -0 -2 -7 -8 -15 -23 -18 -0 -4 -1 -0 -0 -0 -0 -0 -0 -0 -0 -0 -0
-0 -0 -0 -0 -0 -0 -0 -0 -0 -0 -0 -0 -0 -0 -0 -7 -2 -0 -0 -0 -0 -0 -0 -0 -0 -0 -1 -8 -10 -20 -9 -9 -10 -0 -0 -0 -0 -0 -0 -0 -0 -0 -0
-0 -0 -0 -0 -0 -0 -0 -0 -0 -0 -0 -0 -0 -0 -0 -13 -5 -2 -9 -1 -1 -0 -16 -2 -1 -0 -0 -7 -7 -5 -0 -22 -12 -13 -1 -3 -0 -0 -0 -0 -0 -0 -0
-0 -0 -0 -0 -0 -0 -0 -0 -0 -0 -0 -0 -0 -0 -0 -22 -6 -9 -2 -7 -3 -0 -1 -9 -3 -0 -1 -8 -4 -1 -0 -0 -12 -6 -7 -4 -0 -0 -0 -0 -0 -0 -0
-0 -0 -0 -0 -0 -0 -0 -0 -0 -0 -0 -0 -0 -0 -0 -0 -1 -6 -0 -8 -4 -0 -0 -0 -0 -0 -0 -0 -0 -6 -6 -3 -3 -2 -0 -8 -0 -0 -0 -0 -0 -0 -0
-0 -0 -0 -0 -0 -0 -0 -0 -0 -0 -0 -0 -0 -0 -0 -0 -1 -1 -0 -0 -0 -0 -0 -2 -1 -2 -0 -0 -0 -0 -0 -1 -0 -0 -9 -0 -9 -0 -0 -10 -0 -5 -0
-0 -0 -0 -0 -0 -0 -0 -0 -0 -0 -0 -0 -0 -0 -0 -0 -0 -1 -0 -0 -0 -0 -0 -0 -0 -0 -0 -0 -0 -0 -0 -1 -0 -0 -0 -0 -0 -0 -0 -0 -0 -3 -1
-0 -0 -0 -0 -0 -0 -0 -0 -0 -0 -0 -0 -0 -0 -0 -0 -1 -1 -0 -0 -0 -0 -0 -0 -4 -0 -1 -0 -0 -0 -0 -0 -0 -0 -0 -1 -1 -0 -0 -0 -0 -0 -0
-0 -0 -0 -0 -0 -0 -0 -0 -0 -0 -0 -0 -0 -0 -0 -0 -0 -1 -1 -0 -0 -0 -0 -0 -5 -2 -1 -7 -0 -0 -0 -0 -0 -0 -0 -0 -0 -0 -0 -0 -0 -0 -0
-0 -0 -0 -0 -0 -0 -0 -0 -0 -0 -0 -0 -0 -0 -0 -0 -0 -1 -1 -0 -0 -0 -0 -0 -0 -0 -0 -0 -1 -0 -0 -0 -0 -1 -0 -0 -0 -0 -0 -0 -0 -1 -0
-0 -0 -0 -0 -0 -0 -0 -0 -0 -0 -0 -0 -0 -0 -0 -0 -0 -1 -0 -0 -0 -0 -0 -0 -2 -1 -1 -1 -1 -6 -1 -0 -0 -0 -0 -0 -0 -0 -0 -0 -0 -0 -0
-0 -0 -0 -0 -0 -0 -0 -0 -0 -0 -0 -0 -0 -0 -0 -0 -0 -0 -1 -0 -0 -0 -0 -0 -0 -0 -0 -0 -1 -1 -0 -2 -0 -0 -0 -0 -0 -0 -0 -0 -0 -0 -0
-0 -0 -0 -0 -0 -0 -0 -0 -0 -0 -0 -0 -0 -0 -0 -0 -0 -0 -0 -0 -0 -0 -0 -0 -0 -0 -0 -0 -0 -0 -1 -0 -0 -0 -0 -0 -0 -0 -0 -0 -0 -0 -0
-0 -0 -0 -0 -0 -0 -0 -0 -0 -0 -0 -0 -0 -0 -0 -0 -0 -0 -0 -0 -0 -0 -0 -0 -0 -0 -0 -0 -0 -0 -0 -0 -0 -0 -0 -0 -0 -0 -0 -0 -0 -0 -0
-0 -0 -0 -0 -0 -0 -0 -0 -0 -0 -0 -0 -0 -0 -0 -0 -0 -0 -0 -0 -0 -0 -0 -0 -0 -0 -0 -0 -0 -0 -0 -0 -0 -0 -0 -0 -0 -0 -0 -0 -0 -0 -0
-0 -0 -0 -0 -0 -0 -0 -0 -0 -0 -0 -0 -0 -0 -0 -0 -0 -0 -0 -0 -0 -0 -0 -0 -0 -0 -0 -0 -0 -0 -0 -0 -0 -0 -0 -0 -0 -0 -0 -0 -0 -0 -0
-0 -0 -0 -0 -0 -0 -0 -0 -0 -0 -0 -0 -0 -0 -0 -0 -0 -0 -0 -0 -0 -0 -0 -0 -0 -0 -0 -0 -0 -0 -0 -0 -0 -0 -0 -0 -0 -0 -0 -0 -0 -0 -0
-0 -0 -0 -0 -0 -0 -0 -0 -0 -0 -0 -0 -0 -0 -0 -0 -0 -0 -0 -0 -0 -0 -0 -0 -0 -0 -0 -0 -0 -0 -0 -0 -0 -0 -0 -0 -0 -0 -0 -0 -0 -0 -0
-0 -0 -0 -0 -0 -0 -0 -0 -0 -0 -0 -0 -0 -0 -0 -0 -0 -0 -0 -0 -0 -0 -0 -0 -0 -0 -0 -0 -0 -0 -0 -0 -0 -0 -0 -0 -0 -0 -0 -0 -0 -0 -0
-0 -0 -0 -0 -0 -0 -0 -0 -0 -0 -0 -0 -0 -0 -0 -0 -0 -0 -0 -0 -0 -0 -0 -0 -0 -0 -0 -0 -0 -0 -0 -0 -0 -0 -0 -0 -0 -0 -0 -0 -0 -0 -0
-0 -0 -0 -0 -0 -0 -0 -0 -0 -0 -0 -0 -0 -0 -0 -0 -0 -0 -0 -0 -0 -0 -0 -0 -0 -0 -0 -0 -0 -0 -0 -0 -0 -0 -0 -0 -0 -0 -0 -0 -0 -0 -0
-0 -0 -0 -0 -0 -0 -0 -0 -0 -0 -0 -0 -0 -0 -0 -0 -0 -0 -0 -0 -0 -0 -0 -0 -0 -0 -0 -0 -0 -0 -0 -0 -0 -0 -0 -0 -0 -0 -0 -0 -0 -0 -0
-0 -0 -0 -0 -0 -0 -0 -0 -0 -0 -0 -0 -0 -0 -0 -0 -0 -0 -0 -0 -0 -0 -0 -0 -0 -0 -0 -0 -0 -0 -0 -0 -0 -0 -0 -0 -0 -0 -0 -0 -0 -0 -0
-0 -0 -0 -0 -0 -0 -0 -0 -0 -0 -0 -0 -0 -0 -0 -0 -0 -0 -0 -0 -0 -0 -0 -0 -0 -0 -0 -0 -0 -0 -0 -0 -0 -0 -0 -0 -0 -0 -0 -0 -0 -0 -0
-0 -0 -0 -0 -0 -0 -0 -0 -0 -0 -0 -0 -0 -0 -0 -0 -0 -0 -0 -0 -0 -0 -0 -0 -0 -0 -0 -0 -0 -0 -0 -0 -0 -0 -0 -0 -0 -0 -0 -0 -0 -0 -0
-0 -0 -0 -0 -0 -0 -0 -0 -0 -0 -0 -0 -0 -0 -0 -0 -0 -0 -0 -0 -0 -0 -0 -0 -0 -0 -0 -0 -0 -0 -0 -0 -0 -0 -0 -0 -0 -0 -0 -0 -0 -0 -0
Wind_Speed
24 25 28 28 28 28 30 31 29 27 29 28 17 6 7 8 17 12 5 13 16 18 19 18 21 22 19 19 19 18 19 19 22 25 24 25 25 28 26 26 24 25 26
24 25 26 25 27 28 27 28 30 30 27 26 24 19 8 22 32 23 29 18 17 20 21 23 23 21 21 13 19 21 21 20 21 26 27 28 28 27 27 29 26 26 26
23 26 26 26 26 26 27 27 30 31 29 26 25 22 19 17 25 31 30 32 30 29 25 25 24 24 20 19 6 9 19 21 21 24 26 26 27 28 29 28 28 30 28
23 25 27 26 27 27 26 26 25 28 31 29 25 23 21 18 20 24 30 30 31 30 31 30 27 26 24 21 15 6 7 10 18 22 25 27 27 27 28 30 32 30 32
24 25 26 25 26 27 27 25 24 26 28 31 29 26 25 21 24 25 21 20 18 27 33 32 30 28 25 24 23 15 11 6 6 12 20 24 26 27 28 28 31 31 31
24 24 24 25 26 26 26 25 24 25 25 26 29 26 24 24 30 26 24 21 21 22 15 14 28 30 28 23 23 21 22 24 14 8 9 20 23 26 28 29 28 30 33
21 21 23 24 26 25 23 24 24 24 24 25 24 26 25 23 28 30 26 24 22 22 20 14 15 17 27 27 24 23 23 23 22 18 15 11 19 25 28 30 28 28 29
18 19 20 22 24 25 24 23 23 23 23 23 24 23 24 23 24 27 29 27 25 23 21 18 16 9 16 21 22 26 24 23 23 21 18 15 15 21 23 25 29 29 27
17 16 18 20 22 23 23 22 23 23 22 23 23 24 23 25 23 24 25 25 26 25 23 20 18 14 13 23 19 13 14 18 18 22 22 22 22 23 23 17 18 25 28
14 13 17 20 21 21 22 22 23 23 23 22 23 23 25 25 24 24 25 23 24 24 23 21 18 16 17 16 18 11 7 7 7 10 15 19 20 20 21 17 11 2 21
11 12 17 20 21 23 23 24 24 25 26 26 25 24 25 26 24 25 24 24 25 24 23 21 20 20 19 16 16 15 15 14 9 9 8 6 6 15 19 18 17 16 16
12 14 19 20 21 22 24 26 25 26 26 26 27 27 26 26 26 25 26 25 23 23 22 20 20 22 21 20 19 19 17 15 12 10 9 7 5 6 12 4 11 17 18
11 13 18 20 21 21 21 21 23 25 26 27 28 26 27 27 26 26 25 24 23 23 22 23 23 23 22 22 21 22 22 21 18 14 10 8 5 3 4 7 6 3 4
10 11 13 18 19 20 21 20 21 22 25 27 27 26 26 25 25 26 26 26 27 26 25 24 24 24 24 24 22 21 19 20 21 20 17 12 8 5 5 6 5 4 3
10 10 11 11 13 14 16 18 20 20 20 21 23 24 27 26 25 26 26 27 28 27 26 25 26 26 26 26 25 23 21 19 19 17 17 17 16 16 13 10 9 7 4
10 9 9 9 9 10 10 11 18 20 21 18 19 23 25 23 24 28 29 28 28 28 29 30 28 26 25 24 24 23 24 22 21 19 18 16 15 14 13 13 14 13 9
9 8 8 8 8 9 10 10 10 13 19 23 24 25 25 25 28 30 30 28 29 29 32 30 29 28 25 22 22 22 22 21 20 20 19 18 16 15 14 13 12 12 11
8 7 8 6 6 7 8 8 9 11 12 16 20 21 24 25 27 28 30 28 30 31 31 31 30 28 28 25 22 20 19 19 20 20 21 19 18 17 17 16 15 15 15
7 8 7 6 6 5 6 6 9 11 11 12 15 19 21 22 26 28 28 29 30 33 32 29 29 29 28 27 26 22 18 17 16 17 19 20 19 19 18 18 17 17 18
7 7 7 6 5 5 5 5 5 6 7 9 11 16 19 23 24 25 26 27 29 29 30 30 26 27 29 28 27 26 24 19 17 16 16 15 15 17 17 15 13 12 11
7 7 7 8 8 6 5 5 5 5 7 9 10 15 19 21 21 22 24 26 27 28 28 28 27 27 29 29 27 28 27 24 18 16 15 14 14 13 13 14 16 15 13
9 8 9 9 9 10 8 9 9 8 10 10 13 16 17 18 21 22 23 25 27 27 26 27 26 26 29 32 31 30 28 25 21 17 14 13 13 14 13 13 16 17 18
12 13 14 14 14 14 15 14 13 14 14 14 15 18 19 18 20 22 24 25 26 26 27 27 25 24 26 32 32 31 29 25 17 15 13 11 11 13 15 14 14 17 19
14 15 14 15 16 16 16 16 16 17 16 16 17 18 19 20 21 23 24 24 26 26 26 27 26 24 23 31 33 32 31 28 20 16 15 13 12 13 16 17 17 17 20
14 15 16 17 18 18 18 18 18 18 18 16 16 17 17 18 21 24 23 24 26 26 26 26 26 24 23 31 32 33 33 33 33 33 22 18 15 15 16 17 18 17 18
14 14 15 17 18 19 18 19 18 19 20 19 19 19 18 19 21 23 23 24 25 25 26 26 26 25 23 27 31 30 31 32 32 32 31 25 19 16 16 16 18 19 18
Wind_Direction
46 48 43 44 44 45 45 44 45 48 50 53 58 40 65 54 328 327 300 305 311 314 312 301 320 330 342 334 326 321 308 298 288 286 287 287 288 281 281 285 281 281 281
49 51 48 48 48 48 48 48 49 50 53 55 57 60 59 54 21 57 356 322 311 308 303 307 298 281 331 20 337 316 307 302 296 290 288 285 282 285 281 281 279 280 280
53 53 52 52 52 51 51 52 52 53 54 56 58 59 59 63 47 22 28 5 4 356 330 322 317 323 349 1 87 31 329 309 302 296 292 291 286 283 279 280 278 277 277
57 56 54 54 54 53 55 54 55 55 55 56 59 59 59 58 68 62 27 16 3 355 354 348 334 332 319 341 354 80 59 10 325 310 300 294 289 286 283 278 275 278 276
59 58 56 56 56 55 58 55 57 57 58 56 58 58 58 59 62 65 65 69 62 33 2 356 347 340 326 325 336 2 23 42 36 356 321 303 294 290 285 284 279 278 278
60 59 59 57 57 57 57 56 57 59 60 59 57 58 58 59 59 62 62 65 65 60 66 64 37 348 345 333 335 344 345 350 15 42 37 327 305 297 292 287 286 281 276
65 62 60 58 57 57 57 56 56 58 59 59 60 58 58 59 59 60 62 63 65 64 64 65 68 66 40 356 343 338 338 340 347 357 9 28 336 312 301 288 287 284 280
69 66 62 59 58 57 57 57 56 58 58 59 60 61 59 60 57 60 58 61 63 64 63 65 67 70 71 64 39 356 346 341 337 343 347 354 351 336 322 307 290 286 286
72 69 64 61 60 58 58 57 58 58 60 60 61 60 60 57 57 58 60 60 60 62 63 63 65 67 71 57 63 77 71 42 22 347 337 330 332 330 325 334 324 296 287
76 72 67 63 62 61 60 59 60 61 61 62 62 61 59 57 57 57 59 61 60 60 61 61 62 61 65 68 63 71 80 90 92 69 28 1 347 343 337 351 356 342 309
80 77 68 64 63 63 63 63 61 61 62 62 62 61 59 56 57 56 57 60 60 60 61 59 60 59 63 66 66 67 65 65 79 86 92 79 90 7 347 346 342 337 328
80 74 66 64 64 63 61 61 62 61 61 60 59 58 57 57 56 56 56 57 59 58 57 59 61 61 63 65 65 64 65 68 74 77 84 95 123 208 231 119 8 342 329
88 81 67 62 59 60 61 61 59 57 57 55 55 54 53 53 54 53 54 54 56 58 60 62 61 63 64 65 65 65 64 64 67 72 79 85 107 162 163 87 90 102 24
99 92 84 67 62 59 57 59 56 55 52 51 51 51 49 51 51 50 51 53 55 56 57 60 61 62 63 62 62 65 66 64 64 66 69 73 81 102 107 100 104 121 127
108 102 93 88 80 71 63 58 54 53 53 51 50 48 45 46 47 47 49 51 52 53 56 58 57 57 58 58 58 59 61 62 63 65 65 66 68 70 74 78 73 75 86
115 109 104 100 92 83 77 69 58 52 50 52 51 46 44 46 45 45 46 48 49 51 51 51 53 55 55 55 56 56 58 58 60 62 64 66 67 66 68 68 64 63 67
125 126 117 106 95 85 76 71 64 58 52 47 47 44 44 43 41 41 42 45 46 46 45 47 48 48 51 53 54 55 55 56 59 60 61 63 65 65 65 64 64 61 58
135 131 121 120 110 93 80 73 68 59 54 48 46 44 41 41 40 39 37 40 38 40 40 39 41 43 44 46 50 52 53 56 57 59 59 62 65 66 66 66 65 62 59
124 115 125 118 113 104 88 76 64 55 52 48 44 42 40 39 36 34 35 35 33 29 31 37 36 36 39 40 42 46 50 54 56 57 58 58 60 62 63 63 61 58 54
112 107 106 109 113 100 84 73 63 56 49 44 40 35 31 30 31 29 30 29 28 27 26 28 34 33 31 34 36 38 42 47 51 54 55 56 55 53 50 49 47 43 39
95 99 96 77 73 82 76 66 61 52 43 36 35 34 29 28 27 25 23 22 22 20 20 23 26 28 25 27 31 32 35 39 45 49 51 51 51 49 47 43 40 38 37
66 71 68 65 61 55 60 56 53 49 42 36 34 32 30 29 24 21 19 18 16 15 16 18 21 23 18 13 17 22 28 33 40 45 47 48 47 46 45 44 42 41 40
43 40 40 39 42 43 40 41 43 41 38 37 34 29 27 25 23 20 17 16 14 13 13 13 16 20 18 4 6 12 20 29 39 43 43 43 44 46 46 47 47 46 46
25 24 28 31 32 32 31 31 32 32 33 33 32 30 26 24 22 19 18 16 14 14 13 11 12 16 18 354 354 0 7 18 36 42 44 47 48 49 50 50 50 50 50
21 21 22 23 26 28 27 27 29 29 30 32 31 29 28 27 24 21 20 18 16 15 15 14 13 14 16 349 333 335 341 344 350 1 36 46 52 54 54 53 52 53 55
27 28 26 26 28 29 30 30 32 29 29 30 31 31 31 28 25 23 22 21 19 18 19 19 18 17 18 2 327 323 329 339 343 341 6 33 49 55 57 56 56 55 57